Regional Weather Roundup
Issued by NWS

Home | Current Version | Previous Version | Graphics & Text | Print | Product List | Glossary On
Versions: 1 2 3 4 5 6 7 8 9 10 11 12 13 14 15 16 17 18 19 20 21 22 23 24 25 26 27 28 29 30 31 32 33 34 35 36 37 38 39 40 41 42 43 44 45 46 47 48 49 50
857
ASUS43 KMPX 221010
RWRMN
WEATHER ROUNDUP FOR MINNESOTA
NATIONAL WEATHER SERVICE TWIN CITIES/CHANHASSEN MN
400 AM CST WED FEB 22 2017


NOTE: "FAIR" INDICATES FEW OR NO CLOUDS BELOW 12,000 FEET WITH NO
SIGNIFICANT WEATHER AND/OR OBSTRUCTIONS TO VISIBILITY. N/A MEANS
CURRENT SKY AND/OR WEATHER CONDITIONS ARE NOT AVAILABLE.

MNZ060>063-068>070-221100-
   Twin Cities Metro

CITY           SKY/WX    TMP DP  RH WIND       PRES   REMARKS
TWIN CITIES    MOCLDY    41  39  93 SE3       29.64F
ST PAUL        PTCLDY    38  38 100 CALM      29.67R FOG
CRYSTAL        MOCLDY    42  40  92 N5        29.62F
BLAINE         CLOUDY    43  43 100 W3        29.66R FOG
LAKEVILLE      CLOUDY    39  39 100 S6        29.64F
EDEN PRAIRIE   PTCLDY    40  38  93 NE5       29.61F FOG
SOUTH ST PAUL  CLOUDY    38  38  99 CALM      29.66R FOG
LAKE ELMO      FAIR      37  37 100 W3        29.66R FOG
$$
MNZ001>005-007-008-013>017-022>024-027-028-221100-
   Northwest Minnesota

CITY           SKY/WX    TMP DP  RH WIND       PRES   REMARKS
BEMIDJI        CLOUDY    34  34 100 NW8       29.64R FOG     WCI  28
HALLOCK        CLOUDY    34  32  93 N7        29.70R FOG     WCI  28
ROSEAU         MOCLDY    30  27  86 CALM      29.71R
WARROAD        PTCLDY    32  28  86 N3        29.70R
THIEF RVR FALL MIX PCPN  32  31  96 N6        29.67R FOG     WCI  26
CROOKSTON      FOG       32  30  93 N8        29.68F VSB 3/4 WCI  25
FOSSTON        FOG       32  32 100 NE3       29.64F VSB 1/4
DETROIT LAKES  CLOUDY    34  34 100 CALM      29.64R
MOORHEAD       DRZL/FOG  34  32  93 N9        29.65F VSB<1/4 WCI  26
PARK RAPIDS    CLOUDY    34  31  88 N5        29.61S WCI  30
MAHNOMEN       FOG       33  32  99 NE5       29.64S VSB 1/4 WCI  28
$$
MNZ006-009>011-018-025>026-221100-
   North Central Minnesota

CITY           SKY/WX    TMP DP  RH WIND       PRES   REMARKS
BAUDETTE       MOCLDY    31  29  92 W5        29.69R WCI  26
FLAG ISLAND    CLOUDY    34  30  86 N7        29.67R WCI  28
INTL FALLS     CLOUDY    32  30  92 E5        29.65S WCI  27
WASKISH        CLOUDY    34  32  93 CALM      29.68R
BIG FORK       CLOUDY    34  32  93 CALM      29.63S
LONGVILLE      CLOUDY    32  30  93 CALM      29.62R
GRAND RAPIDS   CLOUDY    34  33  96 CALM      29.63F
CRANE LAKE     CLOUDY    27  27 100 CALM      29.66R
ORR            CLOUDY    32  30  93 CALM      29.61S
COOK           CLOUDY    34  32  93 CALM      29.62F
WALKER         CLOUDY    32  32  99 W3        29.64R
$$
MNZ012-019>021-037-221100-
   Northeast Minnesota

CITY           SKY/WX    TMP DP  RH WIND       PRES   REMARKS
DULUTH         CLOUDY    35  34  96 N3        29.62F
ELY            MOCLDY    34  34 100 CALM      29.64R
HIBBING        CLOUDY    32  32 100 CALM      29.60F
EVELETH        CLOUDY    34  33  96 NE5       29.61F WCI  30
DULUTH HARBOR  CLOUDY    34  30  86 CALM      29.65R FOG
TWO HARBORS    CLOUDY    41  36  81 CALM      29.61F
SILVER BAY     CLOUDY    34  34 100 CALM      29.61S
GRAND MARAIS     N/A     35  33  92 W6        29.65R WCI  30
G MARAIS ARPRT CLOUDY    34  28  80 CALM      29.62R
$$
MNZ029>031-032-039>041-046>048-054>057-064-221100-
   West Central Minnesota

CITY           SKY/WX    TMP DP  RH WIND       PRES   REMARKS
FERGUS FALLS   CLOUDY    37  37 100 E6        29.65F
WHEATON        MOCLDY    34  34 100 NW6       29.64R FOG     WCI  29
MORRIS         CLOUDY    36  34  93 CALM      29.60R
ALEXANDRIA     CLOUDY    37  37 100 E5        29.60R
ELBOW LAKE     FAIR      36  35  99 CALM      29.61R
WADENA         CLOUDY    34  34 100 CALM      29.62R FOG
GLENWOOD       CLOUDY    36  34  93 E6        29.60F
APPLETON       CLOUDY    41  37  87 W6        29.60R
BENSON         CLOUDY    39  36  87 NE3       29.61R
ORTONVILLE     CLOUDY    37  36  93 CALM      29.59F
MADISON        CLOUDY    41  41 100 N7        29.59S
WILLMAR        FAIR      43  43 100 CALM      29.58S
$$
MNZ033>034-036-042>043-049>051-058-059-221100-
   Central Minnesota

CITY           SKY/WX    TMP DP  RH WIND       PRES   REMARKS
ST CLOUD       CLOUDY    36  36 100 CALM      29.58F FOG
SAUK CENTRE    FAIR      33  33 100 N5        29.61R FOG     WCI  29
PAYNESVILLE    CLOUDY    40  41 100 NE5       29.60R
AITKIN         CLOUDY    34  30  86 CALM      29.59F FOG
PINE RIVER     CLOUDY    34  34 100 CALM      29.65R
BRAINERD       CLOUDY    32  32 100 CALM      29.61F FOG
STAPLES        CLOUDY    32  32 100 CALM      29.62R FOG
LONG PRAIRIE   FAIR      32  32 100 SE3       29.62R FOG
LITTLE FALLS   CLOUDY    32  30  93 CALM      29.62R
LITCHFIELD     MOCLDY    45  43  93 SE8       29.56F
BUFFALO        CLOUDY    39  38  95 CALM      29.58F FOG
MAPLE LAKE     FOG       38  38 100 SE6       29.55F VSB 3/4
HUTCHINSON     CLOUDY    40  39  99 E3        29.58F
$$
MNZ037-044-045-052-053-221100-
   East Central Minnesota

CITY           SKY/WX    TMP DP  RH WIND       PRES   REMARKS
PRINCETON      FOG       36  34  93 N3        29.60F VSB 1/2
MORA           FOG       32  32 100 CALM      29.63F VSB 3/4
CAMBRIDGE      FOG       36  36 100 CALM      29.60F VSB 3/4
RUSH CITY      FOG       32  32 100 CALM      29.63S VSB 1/4
MOOSE LAKE     CLOUDY    32  30  93 CALM      29.61S FOG
HINCKLEY       FOG       32  32 100 CALM      29.62F VSB 1/4
CLOQUET        CLOUDY    36  34  93 NW5       29.62S FOG
MCGREGOR       CLOUDY    32  32 100 CALM      29.62F
$$
MNZ071>073-080-081-089-090-097-098-221100-
   Southwest Minnesota

CITY           SKY/WX    TMP DP  RH WIND       PRES   REMARKS
MONTEVIDEO     CLOUDY    41  41 100 SW3       29.60R
GRANITE FALLS  PTCLDY    40  38  94 SE10      29.60R
CANBY          PTCLDY    42  40  92 SW5       29.58F
MARSHALL       PTCLDY    45  40  82 S5        29.58F
REDWOOD FALLS  CLEAR     41  37  86 SE7       29.57F
OLIVIA         CLEAR     41  37  87 SE8       29.56F
PIPESTONE      PTCLDY    46  36  66 S9        29.62R
WINDOM         CLOUDY    43  37  81 CALM      29.62S
WORTHINGTON    PTCLDY    43  35  73 S10       29.64R
JACKSON        PTCLDY    43  34  70 SW5       29.64S
TRACY          PTCLDY    44  39  82 S8        29.59F
SLAYTON        MOCLDY    43  36  76 S8        29.62S
$$
MNZ065>067-074>077-082>085-091>093-221100-
   South Central Minnesota

CITY           SKY/WX    TMP DP  RH WIND       PRES   REMARKS
MANKATO          N/A     39  36  89 SE9       29.62F
NEW ULM        CLEAR     41  37  87 SE3       29.59F
ST JAMES       PTCLDY    39  36  87 CALM      29.62F
FAIRMONT       CLEAR     45  36  70 NW18G24   29.67R
GLENCOE        CLOUDY    40  40 100 E8        29.59F
FARIBAULT      CLOUDY    41  37  87 N7        29.66R
OWATONNA       PTCLDY    43  37  81 NW3       29.63R
WASECA         MOCLDY    39  36  87 SW3G24    29.65R
ALBERT LEA     PTCLDY    45  37  76 S3        29.62F
$$
MNZ078>079-086>088-094>096-221100-
   Southeast Minnesota

CITY           SKY/WX    TMP DP  RH WIND       PRES   REMARKS
ROCHESTER      CLOUDY    39  35  86 S13       29.65F
RED WING       MOCLDY    37  36  93 CALM      29.65R
STANTON        LGT RAIN  40  37  88 S5        29.66R
DODGE CENTER   PTCLDY    43  37  81 SW9       29.63F
WINONA         PTCLDY    46  36  66 SE3       29.67F
AUSTIN         PTCLDY    39  34  81 SE6       29.64F
PRESTON        CLEAR     39  33  78 S9        29.67F
$$
ABBREVIATIONS USED IN REMARKS
   TC - TEMPERATURES IN CELSIUS
  WCI - WIND CHILL INDEX
   HX - HEAT INDEX
  VSB - VISIBILITY
$$




USA.gov is the U.S. government's official web portal to all federal, state and local government web resources and services.